Location: Bay Shore Mobile Home Park
(38.5762°N, 75.0841°W)
Time: 19:56:46
(UTC+00:00)

Cosmos 676 Rocket - Pass Details

Date: 15 November 2025
Orbit: 750 x 779 km, 74.0° (Epoch: 08 December)

Event Time Altitude Azimuth Distance (km) Brightness Sun altitude
Rises 23:07:10 0° 176° (S) 3,244 7.3 -15.8°
Reaches altitude 10° 23:09:41 10° 168° (SSE) 2,321 6.5 -16.2°
Maximum altitude 23:14:32 38° 101° (ESE) 1,173 4.5 -17.2°
Enters shadow 23:16:28 28° 59° (ENE) 1,423 4.9 -17.5°
